Voltar ao catálogo

CZ-6A DEB

AtivoPO
NORAD 61090·DEBRIS·🇨🇳 China

Lançado Aug 6, 2024 de Taiyuan Satellite Launch Center

Loading…

Próximas Passagens (próximas 24 horas)

TLE

AtualizadoSource: Space-Track

Época: Sep 14, 2026, 08:56 UTC

1 61090U 24140NG  26257.37290717  .00004420  00000-0  66799-3 0  9995
2 61090  88.7559 234.7192 0121726 295.9834  62.8885 14.69162229109376

Acompanhe CZ-6A DEB em tempo real com AllMySat

Download on the App Store